This is the latest recevied weather packets stored in our database for station/object SP1BMW-13. If no packets are shown the sender has not sent any weather packets the latest 10 day(s).
| Time | Temp. | Humidity | Pressure | Rain* | Wind** | Luminosity | Snow |
|---|---|---|---|---|---|---|---|
| 1777230650 | 3.89° C | 62% | 1023.9 hPa | 0 mm | 0 m/s | 0 W/m² | - |
| 1777230590 | 3.89° C | 61% | 1023.9 hPa | 0 mm | 0 m/s | 0 W/m² | - |
| 1777230530 | 3.89° C | 61% | 1023.9 hPa | 0 mm | 0 m/s | 0 W/m² | - |
| 1777230470 | 3.89° C | 61% | 1023.9 hPa | 0 mm | 0 m/s | 0 W/m² | - |
| 1777230410 | 3.89° C | 61% | 1023.9 hPa | 0 mm | 0 m/s | 0 W/m² | - |
| 1777230350 | 4.44° C | 61% | 1024 hPa | 0 mm | 0 m/s | 0 W/m² | - |
| 1777230290 | 4.44° C | 60% | 1023.9 hPa | 0 mm | 0 m/s | 0 W/m² | - |
| 1777230230 | 4.44° C | 59% | 1024.1 hPa | 0 mm | 0 m/s | 0 W/m² | - |
| 1777230170 | 4.44° C | 59% | 1024.1 hPa | 0 mm | 0 m/s | 0 W/m² | - |
| 1777230110 | 4.44° C | 60% | 1024 hPa | 0 mm | 0 m/s | 0 W/m² | - |
| 1777230050 | 4.44° C | 59% | 1023.9 hPa | 0 mm | 0 m/s | 0 W/m² | - |
| 1777229990 | 5° C | 58% | 1024 hPa | 0 mm | 0 m/s | 0 W/m² | - |
| 1777229931 | 5° C | 58% | 1024 hPa | 0 mm | 0 m/s | 0 W/m² | - |
| 1777229870 | 5° C | 57% | 1023.9 hPa | 0 mm | 0 m/s | 0 W/m² | - |
| 1777229810 | 5° C | 56% | 1024.1 hPa | 0 mm | 0 m/s | 0 W/m² | - |
| 1777229750 | 5.56° C | 55% | 1023.9 hPa | 0 mm | 0 m/s | 0 W/m² | - |
| 1777229691 | 5.56° C | 55% | 1023.9 hPa | 0 mm | 0 m/s | 0 W/m² | - |
| 1777229630 | 5.56° C | 54% | 1023.8 hPa | 0 mm | 0 m/s | 0 W/m² | - |
| 1777229570 | 5.56° C | 54% | 1023.9 hPa | 0 mm | 0 m/s | 0 W/m² | - |
| 1777229510 | 6.11° C | 51% | 1023.9 hPa | 0 mm | 0 m/s | 0 W/m² | - |
| 1777229450 | 6.11° C | 51% | 1023.9 hPa | 0 mm | 0 m/s | 0 W/m² | - |
| 1777229390 | 6.67° C | 52% | 1023.8 hPa | 0 mm | 0 m/s | 0 W/m² | - |
| 1777229330 | 6.67° C | 50% | 1023.9 hPa | 0 mm | 0 m/s | 0 W/m² | - |
| 1777229270 | 6.67° C | 44% | 1023.8 hPa | 0 mm | 0 m/s | 0 W/m² | - |
| 1777229210 | 6.67° C | 45% | 1023.9 hPa | 0 mm | 0 m/s | 0 W/m² | - |
* Rain latest hour (hover to see other rain measurements)
** Current wind speed in m/s (hover to see current wind gust speed)